NOAA 16 DEB

Satellite information

Favourite Embed

Satellite Type and Status

DEBRISIN ORBIT

Key statistics

Satellite NOAA 16 DEB at a glance.

Uptime

9214

Days in orbit

Revolutions

≈ 14.2

Per day

Orbit

SSO

Sun Synchronous Orbit

Inclination

98.8

Latest

Satellite identification and parameters

Extended collection of information and parameters for NOAA 16 DEB.

Object identification

Identified? True

Debris? True

Object name: NOAA 16 DEB

International designator: 2000-055W

Object number (NORAD): 41063

Object ID (CCSDS): 41063

Country: UNITED STATES OF AMERICA (US)

Current information (Y/N): Y

RCS size: SMALL

Orbital parameters

Period: 101.128 minutes

Inclination: 98.7585 deg

SMA: 7190.183 km

Apoapsis: 827.149 km

Periapsis: 796.947 km

RAAN: 63.4388 deg

Eccentricy: 0.00210025

Argument of periapsis: 248.6434 deg

Mean anomaly: 111.2503 deg

Mean motion: 14.23943695 rev/day

Mean motion (dot): 0.00005768 rev/day2

B* drag term: 0.0025272196 1/REarth

Two-line elements (TLE)

Creation date: Dec. 12, 2025, 10:14 a.m.

Reference frame: TEME

Reference center: EARTH

Epoch: Dec. 12, 2025, 5:09 a.m. UTC

TLE line 0: 0 NOAA 16 DEB

TLE line 1: 1 41063U 00055W 25346.21513209 .00005768 00000-0 25272-2 0 9993

TLE line 2: 2 41063 98.7585 63.4388 0021002 248.6434 111.2503 14.23943695518256

Live tracking on map

Real-time ground track for satellite NOAA 16 DEB.

In-orbit conjunctions

A list of the most updated potential collisions computed for object NOAA 16 DEB.

Target Orbit TCA Probability of collision Miss distance Type
CZ-6A DEB LEO 2025-03-08 06:32:01 0.0001152065 335.0 (m) DEBRIS
CZ-6A DEB LEO 2024-11-30 06:31:22 0.0002492791 708.0 (m) DEBRIS
SL-16 DEB LEO 2024-11-14 10:10:21 0.0001114466 39.0 (m) DEBRIS
COSMOS 374 DEB MEO 2024-11-11 11:10:43 0.001743153 223.0 (m) DEBRIS
SL-16 R/B LEO 2024-10-14 20:10:48 0.0001426608 713.0 (m) ROCKET BODY

Associated space launch

The NOAA K, L and M POES satellites begin the fifth generation of improved environmental monitoring in support of NOAA missions. The instrument payload has significant improvements and additions/deletions. The instrument changes have effected the spacecraft subsystems and data formats.

NOAA 16 DEB was lifted into orbit during the mission ‘Titan II SLV | NOAA 16’, on board a Titan II SLV space rocket.

The launch took place on Sept. 21, 2000, 10:22 a.m. from Space Launch Complex 4W.

For more information about the launch, click the button.

Launch to space Titan II SLV | NOAA 16
Titan II SLV | NOAA 16

Agency: N/A

Status: Launch Successful

Launch date: Sept. 21, 2000, 10:22 a.m. UTC

Rocket: Titan II SLV

Launch pad: Space Launch Complex 4W

Location: Vandenberg SFB, CA, USA

...

Latest news about this satellite

There are no fresh news available about this satellite. Check back as we update our databases every day.


Newsletter sign-up

Weekly statistics, charts and insights to help you stay on top of the space industry.